Regional Weather Roundup
Issued by NWS

Home | Current Version | Previous Version | Graphics & Text | Print | Product List | Glossary On
Versions: 1 2 3 4 5 6 7 8 9 10 11 12 13 14 15 16 17 18 19 20 21 22 23 24 25 26 27 28 29 30 31 32 33 34 35 36 37 38 39 40 41 42 43 44 45 46 47 48 49 50
000
ASUS43 KIND 020659
RWRIN

WEATHER ROUNDUP FOR INDIANA
NATIONAL WEATHER SERVICE INDIANAPOLIS IN
300 AM EDT SAT AUG 02 2014

NOTE: "FAIR" INDICATES FEW OR NO CLOUDS BELOW 12,000 FEET WITH NO
SIGNIFICANT WEATHER AND/OR OBSTRUCTIONS TO VISIBILITY.

* - STATION DOES NOT REPORT WEATHER SUCH AS PRECIPITATION OR FOG.

+ - STATION NOT QUALITY CONTROLLED BY THE NATIONAL WEATHER SERVICE.
    USE DATA WITH CAUTION...ESPECIALLY DEWPOINT AND RELATIVE
    HUMIDITY OBSERVATIONS.

INZ001>003-010>013-019-020-020800-
NORTHWEST INDIANA

CITY           SKY/WX    TMP DP  RH WIND       PRES   REMARKS
KNOX *+          N/A     56  54  94 CALM      30.09F
MONTICELLO +   MOCLDY    61  60  96 CALM      30.08F
RENSSELAER +   PTCLDY    59  59 100 CALM      30.09F FOG
VALPARAISO     PTCLDY    55  54  96 E3        30.09F FOG

$$

LMZ046-743>745-020800-
SOUTHERN LAKE MICHIGAN

STATION/POSITION TIME  TEMP WIND        PRES
                       AIR  DIR/SP/G
                 (UTC) (F)  (DEG/KT/KT) (MB)
MICHIGAN CITY    0600   65  150/  4/  5   N/A

$$

INZ004-005-014>016-021>024-020800-
NORTH CENTRAL INDIANA

CITY           SKY/WX    TMP DP  RH WIND       PRES   REMARKS
GOSHEN         FOG       58  56  93 E3        30.11S VSB 1/2
SOUTH BEND     PTCLDY    59  54  83 S3        30.10F
WARSAW +       PTCLDY    59  57  94 CALM      30.11F FOG

$$

INZ006>009-017-018-025>027-020800-
NORTHEAST INDIANA

CITY           SKY/WX    TMP DP  RH WIND       PRES   REMARKS
ANGOLA *+      CLEAR     61  52  72 CALM      30.11S
FORT WAYNE     CLOUDY    64  57  78 E10       30.10F

$$

INZ028-029-035-036-043>045-051>053-020800-
WEST CENTRAL INDIANA

CITY           SKY/WX    TMP DP  RH WIND       PRES   REMARKS
GREENCASTLE +  CLOUDY    64  59  82 CALM      30.09F
LAFAYETTE      MOCLDY    63  62  97 W3        30.08F FOG
TERRE HAUTE    CLOUDY    65  62  90 NE3       30.08F

$$

INZ030>032-037>040-046>048-054>057-064-065-020800-
CENTRAL INDIANA

CITY           SKY/WX    TMP DP  RH WIND       PRES   REMARKS
INDIANAPOLIS   CLOUDY    63  60  90 NW6       30.09F
-EAGLE CREEK   CLOUDY    65  59  81 NW7       30.09S
KOKOMO *+      CLOUDY    64  61  88 CALM      30.09S
MT COMFORT *+  CLOUDY    66  66 100 NE6       30.09F
SHELBYVILLE    CLOUDY    67  63  87 CALM      30.08S

$$

INZ033-034-041-042-049-050-058-059-020800-
EAST CENTRAL INDIANA

CITY           SKY/WX    TMP DP  RH WIND       PRES   REMARKS
MUNCIE         CLOUDY    63  59  87 CALM      30.09F

$$

INZ060-061-067>069-081>083-085>088-020800-
SOUTHWEST INDIANA

CITY           SKY/WX    TMP DP  RH WIND       PRES   REMARKS
EVANSVILLE     CLOUDY    71  63  75 N3        30.07S

$$

INZ062-063-066-070>080-084-089>092-020800-
SOUTH CENTRAL AND SOUTHEAST INDIANA

CITY           SKY/WX    TMP DP  RH WIND       PRES   REMARKS
BLOOMINGTON    CLOUDY    64  61  90 VRB3      30.08F

$$




USA.gov is the U.S. government's official web portal to all federal, state and local government web resources and services.